Tulsa Jones, OK

10:10 AM CST on November 20, 2017 (GMT -0600)
Jones Jr.

Weather History for KRVS - November, 2013

Change the Weather History Date:

Saturday, November 2, 2013

  Actual Average (KTUL) Record (KTUL)
Temperature  
Mean Temperature 51 °F -  
Max Temperature 64 °F 62 °F 89 °F (1909)
Min Temperature 39 °F 44 °F 20 °F (1966)
Degree Days  
Heating Degree Days 14    
Growing Degree Days 1 (Base 50)    
Moisture  
Dew Point 35 °F    
Average Humidity 59    
Maximum Humidity 93    
Minimum Humidity 28    
Precipitation  
Precipitation 0.00 in - - ()
Sea Level Pressure  
Sea Level Pressure 30.23 in    
Wind  
Wind Speed 3 mph (NNW)    
Max Wind Speed 10 mph    
Max Gust Speed 20 mph    
Visibility 10 miles    
Events      
Averages and records for this station are not official NWS values.
T = Trace of Precipitation, MM = Missing Value Source: NWS Daily Summary

Daily Weather History Graph

Daily Weather History Graph

Search for Another Location

Airport or City:

Trip Planner

Search our weather history database for the weather conditions in past years. The results will help you decide how hot, cold, wet, or windy it might be!

Date:

Astronomy

Nov. 02, 2013 Rise Set
Actual Time 7:47 AM CDT 6:26 PM CDT
Civil Twilight 7:21 AM CDT 6:53 PM CDT
Nautical Twilight 6:50 AM CDT 7:23 PM CDT
Astronomical Twilight 6:20 AM CDT 7:53 PM CDT
Moon 6:47 AM CDT (11/2) 5:58 PM CDT (11/2)
Length of Visible Light 11h 32m
Length of Day
10h 38m
Waning Crescent, 1% of the Moon is Illuminated
Nov 2
Waning Crescent
Nov 3
New
Nov 9
First Quarter
Nov 17
Full
Nov 25
Last Quarter

Hourly Weather History & Observations

Time (CDT) Temp. Windchill Dew Point Humidity Pressure Visibility Wind Dir Wind Speed Gust Speed Precip Events Conditions
12:53 AM 52.0 °F - 41.0 °F 66% 30.11 in 10.0 mi NW 4.6 mph - N/A   Clear
1:53 AM 48.9 °F - 41.0 °F 74% 30.13 in 10.0 mi Calm Calm - N/A   Clear
2:53 AM 50.0 °F - 39.0 °F 66% 30.14 in 10.0 mi Variable 4.6 mph - N/A   Clear
3:53 AM 48.9 °F - 37.0 °F 64% 30.16 in 10.0 mi Calm Calm - N/A   Clear
4:53 AM 46.0 °F - 37.0 °F 71% 30.18 in 10.0 mi Calm Calm - N/A   Clear
5:53 AM 46.0 °F - 36.0 °F 68% 30.20 in 10.0 mi Calm Calm - N/A   Clear
6:53 AM 46.0 °F 44.8 °F 36.0 °F 68% 30.21 in 10.0 mi Variable 3.5 mph - N/A   Clear
7:53 AM 45.0 °F - 36.0 °F 71% 30.24 in 10.0 mi Calm Calm - N/A   Clear
8:53 AM 48.0 °F - 36.0 °F 63% 30.27 in 10.0 mi Variable 4.6 mph - N/A   Clear
9:53 AM 52.0 °F - 36.0 °F 54% 30.28 in 10.0 mi Variable 6.9 mph - N/A   Clear
10:53 AM 55.9 °F - 35.1 °F 45% 30.30 in 10.0 mi North 8.1 mph 18.4 mph N/A   Clear
11:53 AM 57.9 °F - 33.1 °F 39% 30.30 in 10.0 mi NNW 10.4 mph 19.6 mph N/A   Clear
12:53 PM 60.1 °F - 33.1 °F 36% 30.30 in 10.0 mi NNW 10.4 mph 19.6 mph N/A   Clear
1:53 PM 62.1 °F - 33.1 °F 34% 30.27 in 10.0 mi NNW 8.1 mph - N/A   Clear
2:53 PM 62.1 °F - 30.9 °F 31% 30.25 in 10.0 mi Variable 6.9 mph - N/A   Clear
3:53 PM 63.0 °F - 30.0 °F 29% 30.24 in 10.0 mi Variable 6.9 mph 17.3 mph N/A   Clear
4:53 PM 63.0 °F - 28.9 °F 28% 30.22 in 10.0 mi North 8.1 mph - N/A   Clear
5:53 PM 59.0 °F - 30.9 °F 35% 30.21 in 10.0 mi Variable 4.6 mph - N/A   Clear
6:53 PM 50.0 °F - 36.0 °F 59% 30.22 in 10.0 mi Calm Calm - N/A   Clear
7:53 PM 46.9 °F - 37.0 °F 68% 30.24 in 10.0 mi Calm Calm - N/A   Clear
8:53 PM 43.0 °F - 37.9 °F 82% 30.25 in 10.0 mi Calm Calm - N/A   Clear
9:53 PM 41.0 °F - 37.0 °F 86% 30.24 in 10.0 mi Calm Calm - N/A   Clear
10:53 PM 39.9 °F - 37.0 °F 89% 30.25 in 10.0 mi Calm Calm - N/A   Clear
11:53 PM 39.0 °F - 37.0 °F 93% 30.25 in 10.0 mi Calm Calm - N/A   Clear